Home   Weather   Greece   Keratsini   Past weeks
Flag for Greece

Past Weather in Keratsini, Greece — Yesterday and Last 2 Weeks

Currently: 90 °F. Clear. (Weather station: Elefsis Airport, Greece). See more current weather

Past Weather in Keratsini — Graph

°F

Keratsini Temperature Yesterday

Maximum temperature yesterday: 100 °F (at 1:50 pm)
Minimum temperature yesterday: 88 °F (at 4:20 am)
Average temperature yesterday: 94 °F

High & Low Weather Summary for the Past Weeks

 TemperatureHumidityPressure
High102 °F (Jul 13, 2:50 pm)78% (Jul 4, 11:20 pm)29.95 "Hg (Jul 4, 11:20 pm)
Low72 °F (Jul 4, 11:20 pm)12% (Jul 15, 5:50 pm)29.74 "Hg (Jul 13, 5:50 pm)
Average90 °F29%29.83 "Hg
* Reported Jul 4 11:20 pm — Jul 19 11:20 pm, Keratsini. Weather by CustomWeather, © 2024

Note: Actual official high and low records may vary slightly from our data, if they occured in-between our weather recording intervals... More about our weather records

Keratsini Weather History for the Previous 24 Hours

Scroll right to see more
 ConditionsComfort  
Time TempWeatherWind HumidityBarometerVisibility
11:20 pm
Fri, Jul 19
91 °FClear.7 mph30%29.80 "Hg10 mi
10:50 pm91 °FClear.7 mph30%29.80 "Hg10 mi
10:20 pm91 °FClear.7 mph30%29.80 "Hg10 mi
9:50 pm91 °FClear.8 mph30%29.80 "Hg10 mi
9:20 pm93 °FClear.10 mph26%29.77 "Hg10 mi
8:50 pm93 °FClear.14 mph26%29.77 "Hg10 mi
8:20 pm95 °FSunny.15 mph25%29.77 "Hg10 mi
7:50 pm97 °FSunny.10 mph23%29.77 "Hg10 mi
6:50 pm99 °FSunny.12 mph21%29.77 "Hg10 mi
6:20 pm99 °FSunny.12 mph21%29.77 "Hg10 mi
5:50 pm99 °FSunny.14 mph21%29.77 "Hg10 mi
5:20 pm100 °FSunny.15 mph20%29.77 "Hg10 mi
4:20 pm100 °FSunny.14 mph21%29.77 "Hg10 mi
3:50 pm100 °FSunny.16 mph21%29.80 "Hg10 mi
3:20 pm100 °FSunny.16 mph21%29.80 "Hg10 mi
2:50 pm100 °FSunny.16 mph21%29.80 "Hg10 mi
2:20 pm100 °FSunny.16 mph21%29.80 "Hg10 mi
1:50 pm100 °FSunny.16 mph21%29.80 "Hg10 mi
1:20 pm99 °FSunny.12 mph24%29.80 "Hg10 mi
12:50 pm99 °FSunny.16 mph24%29.83 "Hg10 mi
12:20 pm99 °FSunny.16 mph24%29.83 "Hg10 mi
11:20 am97 °FSunny.16 mph23%29.83 "Hg10 mi
10:50 am97 °FSunny.14 mph22%29.83 "Hg10 mi
10:20 am95 °FSunny.16 mph23%29.83 "Hg10 mi
9:50 am93 °FSunny.17 mph26%29.83 "Hg10 mi
9:20 am93 °FSunny.16 mph26%29.83 "Hg10 mi
8:20 am91 °FSunny.9 mph32%29.83 "Hg10 mi
7:50 am90 °FSunny.9 mph36%29.80 "Hg10 mi
7:20 am90 °FSunny.6 mph36%29.80 "Hg10 mi
6:50 am88 °FSunny.3 mph38%29.80 "Hg10 mi
6:20 am88 °FSunny.3 mph38%29.80 "Hg10 mi
5:50 am88 °FClear.3 mph40%29.80 "Hg10 mi
5:20 am88 °FWarm.2 mph43%29.80 "HgN/A
4:20 am88 °FPleasantly warm.2 mph35%29.80 "HgN/A
3:50 am90 °FHot.2 mph31%29.80 "HgN/A
3:20 am91 °FHot.7 mph28%29.80 "HgN/A
2:50 am91 °FHot.5 mph26%29.80 "HgN/A
2:20 am90 °FHot.3 mph27%29.80 "HgN/A
1:50 am90 °FHot.1 mph27%29.80 "HgN/A
1:20 am91 °FHot.2 mph26%29.83 "HgN/A
12:50 am91 °FHot.3 mph26%29.83 "HgN/A
12:20 am93 °FExtremely hot.5 mph24%29.83 "HgN/A
Weather by CustomWeather, © 2024

See weather overview